Theta_e
351 352 353 353 354 355 355 355 353 352 355 357 357 356 358 358 359 360 360 360 360 359 359 359 359 358 356 356 356 355 355 356 356 357 358 357 357 357 357 356 355 356 357 357 357 357 357 356 356 356 357 357 357 359 361 362 362 361 360 360 359 359 359
353 352 352 352 352 355 356 355 352 351 354 357 357 356 357 358 359 360 361 360 360 360 359 359 359 359 357 356 356 356 356 356 356 356 357 358 358 358 358 358 356 356 357 357 357 358 358 357 357 357 358 358 358 359 360 361 361 361 361 360 359 358 358
352 352 351 352 353 354 356 355 353 352 353 357 357 357 356 357 359 360 361 361 360 360 360 359 360 360 358 357 357 357 357 357 357 356 357 357 357 358 359 359 358 356 357 357 357 358 359 359 359 358 357 358 359 359 360 360 360 360 361 361 359 358 358
351 352 351 352 355 355 355 355 355 354 353 355 357 356 356 356 358 360 361 361 361 360 361 360 359 360 359 358 357 357 357 357 357 357 356 356 356 356 358 359 359 357 357 358 359 358 358 359 360 359 358 358 359 360 359 359 359 360 360 361 360 358 358
351 350 349 352 354 354 354 353 354 354 353 355 356 356 356 357 358 360 361 362 362 361 361 360 360 359 359 359 358 357 357 357 357 357 356 356 356 356 356 357 359 359 358 358 359 360 360 359 359 359 358 358 359 359 359 358 359 360 360 360 360 359 358
349 349 349 351 353 353 353 352 352 353 353 354 355 355 356 357 359 360 361 363 363 362 362 361 361 360 359 359 358 358 357 357 357 357 357 357 357 356 356 355 357 359 360 359 360 361 361 360 359 359 359 358 359 359 359 359 359 360 360 360 360 360 358
348 350 349 350 352 352 352 352 351 351 352 353 353 355 356 357 360 361 361 363 363 363 363 362 362 361 360 359 359 359 358 358 357 357 357 357 357 357 357 356 356 357 360 361 361 361 362 363 361 359 359 359 359 360 359 359 359 359 361 361 361 361 359
347 350 350 350 350 351 351 353 352 351 351 352 353 356 357 358 360 362 362 363 363 363 363 363 362 361 361 361 360 359 358 358 357 357 357 358 358 358 357 357 356 356 358 360 361 362 361 362 362 361 359 358 359 360 359 360 360 360 361 362 362 362 361
346 348 349 350 348 349 351 352 352 352 351 353 354 357 359 360 361 362 363 363 364 364 364 363 363 362 361 361 361 360 359 358 358 357 357 358 358 358 358 358 357 356 357 358 360 362 361 361 361 361 360 358 358 359 360 360 360 361 361 362 362 362 361
345 347 350 350 349 350 351 352 353 353 353 354 355 357 358 360 361 362 363 364 364 365 364 364 363 362 362 362 361 361 360 359 359 358 358 358 358 358 358 358 358 357 357 357 358 361 362 361 360 360 361 360 359 359 359 360 360 361 361 361 361 361 361
346 348 350 351 351 352 352 353 356 356 356 354 354 357 357 358 360 360 360 363 365 366 366 365 365 364 363 362 362 362 361 360 359 358 358 358 358 358 358 359 359 358 357 358 358 359 361 362 361 359 360 361 360 359 358 359 360 361 361 361 361 360 360
348 347 349 351 351 351 351 354 358 359 358 355 354 357 358 358 359 359 359 361 364 367 367 367 366 365 364 363 363 363 362 361 360 359 359 358 358 358 358 358 359 359 359 358 359 359 360 361 362 360 359 360 360 360 359 359 360 360 361 361 361 360 360
350 346 347 350 351 351 352 355 358 360 359 355 353 355 357 359 360 360 361 361 362 367 369 368 368 367 365 364 363 363 363 362 361 360 359 358 358 358 358 358 359 359 360 359 359 360 360 361 362 361 360 359 359 360 361 360 360 361 361 361 361 360 360
349 348 350 352 352 353 355 355 357 359 357 354 354 354 356 358 360 361 362 363 363 365 368 369 369 368 367 365 364 363 363 362 361 360 360 359 358 357 358 358 358 358 359 360 360 360 360 361 361 361 361 360 358 359 360 361 361 361 361 361 361 360 360
349 352 355 355 354 355 356 357 358 357 356 354 352 354 356 358 361 363 363 363 364 364 366 370 370 369 368 367 365 364 362 362 361 361 360 359 359 358 358 358 358 357 358 359 360 359 359 359 360 362 362 361 360 359 360 361 362 362 361 361 361 360 360
353 357 357 357 359 359 358 360 361 359 360 358 354 355 359 361 362 364 364 364 364 364 365 368 369 370 369 367 366 364 363 362 361 360 361 360 359 359 358 358 358 357 357 358 359 358 358 358 359 361 361 362 362 361 360 361 362 363 362 361 360 360 360
354 360 360 358 358 361 364 367 366 364 365 365 360 359 362 364 364 365 364 365 364 364 365 367 368 369 369 368 367 365 364 362 362 361 360 360 361 360 359 358 358 357 356 357 359 360 359 359 359 360 361 362 362 362 362 361 361 362 363 362 361 360 360
354 358 361 362 361 367 376 379 374 371 369 365 363 363 363 364 366 365 365 365 365 365 365 365 367 368 368 368 367 367 366 364 362 362 361 360 361 361 360 358 357 357 356 357 359 360 360 360 360 359 361 362 362 362 363 362 361 361 361 362 362 361 360
352 356 361 366 367 368 373 378 380 377 372 366 364 364 363 364 365 365 366 365 365 365 365 364 365 367 367 367 367 367 367 365 364 363 362 361 360 360 361 359 357 357 357 357 358 360 361 361 361 360 360 361 363 362 362 363 362 362 361 361 362 361 360
350 356 359 363 368 368 367 373 379 374 368 366 367 365 364 364 363 364 365 365 365 365 365 365 364 365 366 366 366 368 367 367 366 364 363 363 361 360 361 360 358 357 357 357 357 359 361 362 362 362 361 360 362 363 363 363 363 363 362 362 361 361 361
354 358 361 367 378 379 374 376 378 372 363 361 362 363 363 362 362 363 364 363 364 364 363 364 364 364 365 365 365 367 368 368 366 365 365 364 363 362 361 360 360 358 357 357 357 358 360 361 362 363 362 361 361 362 363 363 363 364 363 363 362 362 362
364 364 367 373 379 380 377 373 372 369 362 357 356 356 357 358 358 359 361 361 362 362 362 363 362 362 364 364 364 366 367 368 367 366 366 365 364 364 362 361 361 360 358 357 357 358 358 359 361 361 362 363 362 361 362 362 363 364 364 364 364 363 363
364 364 365 365 365 369 369 364 363 361 357 356 357 354 354 356 356 356 358 359 359 359 360 361 362 362 363 364 364 364 367 368 368 366 367 366 366 365 364 363 362 362 360 359 358 358 359 358 359 360 361 363 363 362 362 361 362 364 365 365 365 365 364
359 361 361 359 359 360 359 361 363 360 356 355 356 356 356 356 354 354 356 356 357 358 357 359 360 361 363 365 364 364 366 368 368 368 367 367 367 367 366 365 364 364 363 361 360 359 359 359 359 360 360 362 363 363 362 362 361 362 364 366 367 366 366
357 356 355 358 359 357 356 362 363 361 363 364 363 365 364 362 360 357 355 355 356 356 356 357 358 359 362 365 365 365 366 368 368 368 368 367 367 368 368 367 366 366 365 364 363 361 360 361 361 361 362 362 362 363 363 363 362 361 362 364 366 367 367
357 355 354 357 359 355 356 362 363 362 367 368 366 367 368 368 369 366 362 359 357 356 355 355 356 357 359 362 365 366 367 369 369 369 368 368 368 368 369 368 368 368 367 367 366 364 363 363 363 364 364 363 363 363 364 365 364 364 363 364 364 367 367
354 353 354 357 357 354 354 361 365 365 365 365 365 363 362 366 372 372 370 366 362 360 358 356 355 355 357 360 364 367 368 369 370 370 369 369 369 369 370 370 369 369 369 368 368 366 365 364 364 365 365 365 365 365 365 365 365 365 366 365 364 365 366
354 354 354 356 356 355 354 359 364 364 362 363 363 360 360 365 371 374 373 370 367 364 360 359 358 354 355 359 361 365 369 369 371 372 370 371 371 371 371 372 371 370 370 369 369 369 367 366 365 365 365 366 366 366 366 366 366 366 367 366 366 365 365
355 355 355 354 355 354 354 358 360 360 360 361 362 362 363 367 371 373 373 372 370 365 360 362 362 356 355 358 361 364 367 369 370 372 372 372 372 372 373 374 373 372 371 371 370 370 369 368 367 365 365 365 366 367 367 367 367 367 367 366 367 366 366
353 354 353 353 354 354 353 355 358 358 358 360 362 363 364 367 371 372 372 372 370 367 363 364 366 363 358 359 362 364 366 368 370 372 372 373 374 373 374 374 374 373 373 372 372 371 370 369 368 367 366 365 365 366 367 368 368 368 368 368 368 367 367
351 352 353 353 354 355 355 356 356 357 359 360 360 360 360 363 367 368 368 369 369 369 366 364 367 369 365 362 364 367 368 369 370 371 373 374 374 374 374 375 374 374 373 372 372 372 371 370 369 368 367 366 366 367 367 368 369 369 369 369 369 368 368
349 350 352 354 354 354 356 357 357 358 359 358 357 357 358 359 361 364 366 367 368 370 368 366 369 372 369 366 368 370 371 371 371 372 373 374 375 374 375 375 375 374 373 373 373 372 371 371 371 370 369 368 368 367 367 368 368 368 368 368 368 368 368
350 349 350 352 353 352 354 356 357 358 358 356 356 357 357 357 358 360 361 364 368 370 369 370 371 372 371 369 370 373 374 373 373 374 373 374 375 374 375 376 376 375 374 374 374 373 372 372 371 371 370 370 369 369 369 368 365 363 363 363 364 364 363
350 348 348 350 351 351 353 356 357 357 357 356 356 356 356 355 356 357 358 362 366 369 370 370 371 372 373 371 372 375 376 374 374 375 374 374 374 375 375 376 375 375 375 374 374 374 373 372 371 371 371 370 370 370 366 361 357 355 355 357 358 358 359
348 346 348 350 350 352 354 355 355 356 355 355 355 354 354 354 353 354 355 359 364 367 369 369 369 370 372 371 371 373 374 375 376 375 374 372 369 369 371 372 374 374 373 373 374 374 373 372 371 369 369 368 367 368 362 353 347 346 347 347 348 348 349
346 346 348 350 350 351 353 353 354 354 354 354 354 353 353 353 353 353 353 356 360 363 366 369 370 370 370 369 370 371 371 372 374 373 370 367 365 362 360 361 365 368 367 366 371 372 372 372 369 366 366 363 357 354 351 345 339 336 336 336 336 335 335
347 347 349 349 349 350 351 351 352 353 353 353 353 352 352 351 351 351 351 352 356 360 365 368 369 368 368 369 370 371 370 369 371 369 364 362 362 360 354 348 347 350 352 354 359 362 364 363 360 357 358 356 347 340 337 334 332 331 330 330 331 331 330
347 347 348 349 350 350 350 351 352 352 352 352 352 352 351 350 349 349 349 351 354 358 363 366 366 366 366 366 368 370 369 369 369 365 357 352 351 351 347 339 334 334 336 339 342 345 347 347 346 344 343 343 340 336 332 331 331 331 330 330 330 330 330
Wind_Speed
19 19 18 16 17 17 17 18 19 21 25 28 31 33 33 35 37 37 38 40 42 41 42 41 40 42 43 43 42 41 40 39 38 37 35 35 34 33 34 34 34 32 31 31 31 32 32 30 28 29 29 28 27 26 25 23 23 23 21 20 19 19 19
19 18 17 16 16 17 18 18 19 23 26 29 32 33 32 33 36 37 38 40 42 42 43 43 41 42 44 44 43 41 41 39 39 38 36 35 34 33 34 35 35 34 32 32 31 30 31 30 28 28 29 29 28 27 26 24 24 23 22 21 21 20 20
19 17 18 18 17 17 17 17 19 24 27 29 32 34 35 36 37 37 37 38 40 40 41 42 41 42 43 43 42 41 41 40 39 39 37 37 36 35 34 34 35 35 33 32 31 30 30 30 29 29 29 30 29 28 28 26 25 25 24 23 23 22 21
20 20 19 18 18 17 17 17 18 23 29 31 35 38 39 38 36 36 36 37 39 39 40 41 41 41 41 42 43 42 42 42 41 41 40 39 39 37 34 33 33 34 33 32 32 31 30 30 29 29 30 31 31 30 30 28 27 26 26 25 24 24 23
20 19 18 16 17 16 16 17 18 22 28 32 36 38 38 36 34 34 36 37 39 40 41 42 41 40 39 39 41 42 44 45 43 43 42 40 38 37 35 34 32 32 33 33 31 31 31 31 30 30 31 32 32 31 31 30 29 28 27 27 26 26 26
18 17 16 16 16 17 17 18 20 25 30 32 35 35 35 35 35 36 37 37 39 40 40 40 39 38 37 37 38 40 42 44 44 43 42 40 39 37 37 36 34 33 33 33 33 31 31 32 33 33 32 33 33 32 32 31 31 30 29 29 28 28 27
18 17 17 17 16 17 17 17 20 27 31 32 33 34 35 35 35 36 37 38 39 40 39 40 40 39 39 38 38 39 40 41 43 42 41 40 39 39 39 38 36 35 33 32 33 32 31 31 33 34 34 33 33 33 33 32 32 31 31 31 30 30 29
20 19 18 19 17 17 17 17 18 23 27 29 29 31 34 35 34 35 37 38 39 39 39 40 40 40 40 39 39 40 40 40 41 41 40 39 39 39 39 38 37 36 34 33 33 34 34 33 32 34 35 34 34 34 34 33 33 32 32 33 32 32 31
19 19 19 19 18 17 16 16 17 21 24 26 27 29 33 34 34 35 37 38 37 38 39 40 41 41 41 39 40 40 40 40 40 40 39 38 39 39 38 38 38 37 35 35 34 34 35 35 33 33 35 36 35 34 35 34 34 34 34 34 34 34 33
18 16 18 19 17 15 16 15 15 17 18 21 25 28 31 32 32 34 34 34 35 37 39 40 40 41 41 40 40 40 40 40 40 40 40 39 39 39 38 37 37 37 37 36 35 34 35 36 35 34 34 36 37 36 36 36 36 36 36 36 36 36 35
19 17 17 19 18 15 17 16 15 15 14 17 23 27 30 31 30 31 31 31 32 35 37 39 39 40 41 41 41 40 40 40 40 40 41 41 39 39 38 37 36 37 37 37 36 35 35 35 36 36 35 36 37 38 39 38 38 38 38 38 38 37 37
19 18 16 20 20 18 17 16 15 16 14 17 23 26 28 30 30 30 30 31 31 32 35 37 38 39 40 41 41 40 41 40 40 40 41 42 41 39 39 38 36 37 38 38 37 36 35 35 36 37 38 38 38 39 40 40 39 39 39 39 38 38 37
17 17 15 18 19 18 17 16 16 17 16 17 23 26 27 29 30 31 31 31 32 32 33 35 37 38 39 40 40 40 41 42 42 42 42 42 42 40 39 39 38 38 38 39 38 36 36 36 37 38 39 40 40 40 40 41 41 40 40 39 38 38 38
16 14 13 16 18 18 18 17 16 17 16 17 22 25 27 29 31 33 32 32 33 33 33 35 36 37 37 38 39 41 42 43 43 43 42 42 42 41 40 40 39 38 38 38 39 38 38 37 38 39 40 40 41 41 40 40 41 40 40 39 39 38 38
16 13 12 15 17 17 17 15 15 16 16 16 20 24 26 29 31 32 32 32 34 35 35 35 36 37 37 37 39 41 42 42 41 42 42 41 41 42 41 40 40 39 38 38 39 40 39 38 38 39 39 40 41 42 41 40 40 41 40 41 40 39 39
13 12 13 14 14 15 15 15 15 15 15 15 17 22 25 27 30 31 31 32 34 35 35 35 36 37 37 37 38 40 41 41 40 40 40 40 41 43 42 41 40 39 39 39 40 40 40 39 38 38 39 40 40 40 40 40 40 41 42 42 42 41 39
11 11 12 13 13 12 13 13 13 13 14 14 17 22 24 25 28 30 30 31 32 34 35 34 35 37 37 37 37 39 39 40 40 39 40 41 41 42 43 41 40 40 39 39 39 39 39 40 39 38 38 39 40 39 40 41 41 42 43 43 43 42 40
9 10 11 12 12 11 11 12 13 13 14 14 17 22 23 23 26 28 29 30 30 32 34 34 34 36 38 37 37 39 39 39 40 39 40 41 41 41 42 42 40 39 39 39 39 39 39 40 40 39 38 38 40 40 40 42 43 43 43 44 45 44 43
9 8 8 9 10 9 10 10 10 11 12 14 17 21 23 24 24 26 29 31 30 31 33 34 33 33 37 38 38 39 40 39 39 39 39 41 41 41 40 40 40 39 39 40 39 39 40 40 40 40 38 37 38 40 42 42 44 44 45 45 46 46 45
9 8 7 7 7 6 8 8 7 9 11 14 17 19 20 22 22 25 28 30 30 31 32 33 32 32 35 38 38 39 40 40 39 39 39 39 40 39 38 39 40 40 39 39 39 39 39 40 39 40 40 39 38 39 42 42 43 45 46 46 46 47 47
8 8 8 7 8 6 6 7 6 6 7 9 13 15 17 18 19 21 24 27 29 30 30 31 31 30 33 37 38 38 40 41 40 39 39 38 38 38 38 38 39 39 39 38 39 40 39 39 39 40 41 41 39 38 40 42 43 45 46 47 47 47 48
12 13 11 9 9 8 8 9 9 7 7 7 4 9 16 19 19 18 20 22 25 25 27 30 30 30 32 35 37 38 39 40 40 39 38 37 36 36 37 38 38 39 39 38 37 38 38 38 39 40 40 41 40 39 39 39 40 43 45 46 46 46 47
15 14 13 11 11 11 12 12 12 10 10 10 9 4 3 11 17 20 19 20 21 21 22 25 27 29 30 33 37 37 38 39 39 38 38 37 36 36 37 38 38 38 38 37 36 35 36 38 39 39 39 39 39 41 40 38 36 38 41 44 44 45 46
13 12 11 11 10 12 15 13 12 12 11 10 10 10 8 5 6 13 18 20 22 21 21 21 24 27 28 30 35 37 36 38 38 38 38 37 37 37 36 36 36 36 36 36 36 35 35 36 36 36 36 37 38 39 40 38 35 34 34 37 41 44 45
12 11 11 12 12 12 14 13 12 13 13 13 13 13 12 11 8 5 11 17 22 23 22 23 24 25 25 27 31 35 36 36 38 38 37 38 38 36 35 35 34 34 34 34 34 34 33 31 31 32 33 34 36 37 37 36 35 33 32 31 34 40 44
11 10 10 14 16 17 18 17 15 14 15 16 17 16 16 16 15 10 6 9 15 20 24 27 28 26 24 24 27 33 36 36 37 38 37 37 36 34 33 33 32 31 31 32 32 32 31 30 29 29 31 32 33 34 34 33 33 32 32 29 28 33 40
12 13 12 14 18 20 19 18 17 16 17 19 18 17 17 18 17 15 12 8 7 10 14 22 28 29 26 25 26 30 34 35 36 37 36 35 34 33 31 31 31 30 30 30 29 29 29 29 29 28 28 29 30 30 31 31 30 30 29 29 27 28 33
10 12 14 16 19 20 18 16 16 17 17 17 17 17 18 17 16 16 15 10 7 6 6 9 22 31 30 27 27 29 32 34 34 34 34 33 32 31 29 29 29 29 29 28 28 28 28 29 29 28 27 26 27 28 29 29 29 28 27 27 27 28 30
10 10 12 15 17 18 17 14 13 14 14 15 14 14 15 15 16 16 13 10 10 7 6 6 14 29 32 30 30 30 32 33 33 32 32 31 31 30 28 27 28 27 27 28 27 26 27 27 27 27 26 24 24 25 26 27 27 27 27 27 28 30 32
11 10 11 13 15 17 17 14 11 10 11 12 13 13 14 14 13 13 11 11 13 10 7 6 5 20 29 30 30 30 31 32 32 32 31 29 29 29 27 26 27 26 27 28 27 26 25 25 26 25 24 23 22 22 22 23 24 25 27 29 30 31 33
11 12 11 13 14 17 16 13 11 11 11 13 14 14 17 16 13 13 14 13 13 11 8 8 2 11 20 24 25 27 29 30 30 29 29 28 28 28 27 26 26 25 25 26 26 25 24 22 23 23 22 22 22 21 20 19 19 20 23 27 30 31 31
10 12 12 11 12 15 15 13 12 11 11 13 14 14 16 16 14 14 15 15 14 12 9 7 3 6 13 17 19 22 24 26 26 26 26 26 27 27 27 26 25 24 24 25 25 24 23 21 21 21 21 21 20 21 20 18 16 16 17 19 22 25 28
8 10 11 10 9 11 13 11 9 9 9 10 13 14 13 13 14 16 16 15 15 12 8 6 4 7 12 14 16 19 22 23 23 23 23 23 24 25 25 24 24 24 24 24 24 23 21 20 20 20 20 20 20 20 19 16 13 11 9 9 11 13 16
6 8 12 13 11 10 10 9 8 7 7 8 10 12 13 12 14 16 16 15 14 12 8 5 4 6 11 15 16 18 21 22 22 22 22 20 19 19 21 23 24 24 24 23 23 22 21 21 20 19 18 19 20 19 15 11 10 9 7 6 5 3 3
6 8 11 12 11 8 7 8 8 7 7 7 8 9 10 12 13 16 17 16 14 13 9 3 2 3 7 11 14 16 18 20 21 21 20 17 14 13 13 16 19 20 19 19 20 21 21 21 19 16 14 13 12 14 15 13 11 9 7 6 4 2 1
7 9 9 11 11 7 6 6 7 6 6 7 7 8 9 10 11 13 16 16 15 13 9 4 2 3 4 6 8 12 15 16 16 18 19 19 19 17 15 12 12 14 14 12 14 18 19 18 16 14 13 13 12 12 13 13 11 8 7 6 4 3 2
6 8 9 10 9 5 5 5 5 6 7 7 7 8 8 9 9 10 14 16 15 12 8 5 8 9 8 7 6 10 14 14 13 16 20 22 22 24 25 24 22 20 19 16 14 14 14 15 15 14 13 13 14 14 13 12 11 9 9 7 5 4 2
7 8 7 8 7 4 5 6 6 7 7 7 8 8 8 8 9 10 12 14 14 11 7 6 11 13 13 12 11 11 12 12 14 20 23 23 24 27 30 31 29 26 25 24 21 19 18 17 17 16 14 12 12 13 13 13 12 12 11 10 9 7 6
Wind_Direction
172 173 175 173 173 176 177 179 178 178 178 179 182 183 183 184 185 184 186 188 191 192 193 195 195 194 194 195 197 198 199 199 199 200 200 201 203 202 202 202 203 205 204 202 203 204 206 205 205 210 212 213 214 213 212 211 208 210 210 207 207 208 205
174 174 174 172 174 177 178 178 178 178 179 180 182 183 184 186 187 186 187 189 192 193 193 195 196 196 196 197 197 198 199 200 201 202 202 203 204 204 205 204 203 205 206 205 205 204 205 205 205 208 211 213 214 213 212 212 211 211 211 207 206 208 207
173 172 173 173 174 177 177 178 180 182 182 180 181 185 188 190 190 188 187 188 191 193 194 196 198 199 198 197 197 198 200 201 202 203 204 204 205 205 206 206 205 206 206 207 207 206 204 205 206 208 211 213 214 213 211 212 213 213 212 210 209 208 206
171 170 173 173 172 175 176 178 180 183 184 183 184 188 191 191 190 189 188 188 189 191 194 198 200 202 201 199 198 198 199 201 203 204 205 206 206 206 206 206 206 206 207 207 208 208 207 206 207 209 211 213 213 212 211 211 212 212 213 213 213 211 208
170 166 168 169 170 176 178 178 180 181 184 186 188 190 191 189 188 188 189 189 190 193 196 198 201 204 205 203 200 200 200 202 203 205 206 207 207 207 206 207 207 206 207 207 208 209 209 208 209 210 212 213 212 212 211 211 212 212 212 214 214 213 211
168 166 168 168 171 178 179 179 181 181 183 186 188 189 189 188 188 188 189 189 191 194 196 198 201 204 207 207 205 204 203 203 204 205 206 207 207 207 208 208 208 207 207 207 207 208 209 210 210 210 211 213 212 210 209 209 210 212 212 212 213 214 214
168 169 171 173 174 177 178 179 182 182 183 183 185 186 187 189 189 187 188 189 191 192 194 197 201 204 207 208 208 208 207 206 206 206 206 206 207 207 208 208 208 208 208 207 207 206 207 209 210 209 210 211 211 210 209 208 208 210 211 210 211 213 214
168 171 175 177 176 176 177 178 181 182 181 180 181 183 186 188 189 188 189 190 190 190 193 196 199 203 206 208 209 210 210 209 208 208 207 206 206 207 208 208 209 209 208 208 208 208 208 209 209 209 209 209 209 209 208 208 208 209 210 209 210 211 212
168 168 175 180 176 174 176 177 179 179 177 177 180 182 184 186 188 189 190 190 189 190 193 196 199 202 205 207 209 210 210 210 210 209 208 207 207 208 208 208 208 208 208 209 209 209 210 210 210 209 208 208 208 208 208 209 210 209 210 211 210 210 210
165 164 173 180 178 173 176 176 175 177 176 177 181 184 186 188 190 191 190 189 189 191 194 196 199 201 204 206 209 210 210 210 209 208 208 208 208 209 208 208 208 208 209 210 210 210 211 211 211 211 209 209 208 209 209 210 211 211 211 213 213 212 211
166 166 168 174 174 170 174 176 174 177 177 178 183 185 188 191 194 195 194 193 190 191 195 197 199 200 202 205 207 208 210 210 209 208 207 208 209 209 209 209 208 208 209 209 209 210 211 210 210 211 211 210 210 210 211 211 212 212 212 214 215 214 213
168 170 165 167 170 167 170 173 175 176 176 178 182 183 186 190 194 198 200 198 194 192 194 197 199 201 202 204 206 207 208 209 209 208 208 208 208 209 209 208 208 208 208 208 209 209 210 211 210 211 212 212 212 212 213 213 213 213 214 214 214 215 215
169 170 164 163 165 165 167 169 173 175 173 177 181 182 184 187 192 197 199 198 195 193 194 196 199 202 203 204 205 206 208 208 208 208 208 208 208 208 208 208 208 208 208 208 208 208 209 210 211 212 213 214 214 214 215 214 214 215 214 214 214 215 215
166 162 158 159 161 164 166 167 170 173 173 176 180 183 187 189 193 196 196 195 194 195 195 196 198 201 203 204 205 206 208 208 208 209 208 208 207 208 208 208 208 208 208 208 208 209 210 210 212 213 214 215 216 216 216 216 215 215 214 214 214 215 216
150 145 148 154 158 161 163 163 167 172 175 177 180 184 190 193 194 194 193 193 194 196 197 196 197 199 202 203 204 206 208 208 208 208 208 207 207 207 208 208 208 208 208 208 208 210 211 211 213 214 214 215 217 217 217 217 216 216 215 215 214 215 216
125 132 144 149 154 161 163 165 169 172 174 176 182 188 192 193 192 192 192 192 194 196 198 197 197 198 200 202 204 205 207 208 208 208 207 207 207 207 208 208 208 208 208 209 210 211 212 213 214 215 215 216 216 217 217 218 218 218 217 216 215 215 216
108 118 132 141 150 156 159 164 168 171 176 179 185 191 191 189 188 189 191 193 195 197 198 198 198 198 200 202 203 204 205 206 207 207 206 207 207 208 208 207 207 207 208 209 210 211 212 213 214 215 216 216 216 216 217 218 220 219 219 219 218 217 217
119 122 130 138 145 150 154 160 165 170 179 183 187 191 191 185 183 188 192 194 196 197 199 201 200 199 200 201 201 202 203 204 205 206 206 207 207 208 208 208 207 207 208 208 209 210 211 213 214 215 215 216 216 217 218 219 221 220 220 220 220 220 219
105 110 119 127 136 145 149 151 157 166 175 182 186 190 191 186 182 186 192 195 197 197 200 203 204 200 200 201 201 201 202 202 203 205 206 207 208 209 208 208 208 208 208 208 209 209 211 213 214 215 215 215 215 217 219 221 221 221 221 222 222 222 221
92 103 104 104 114 137 147 144 142 148 157 170 180 184 188 189 188 189 192 195 197 198 200 204 205 203 201 201 201 200 200 201 202 204 205 207 207 208 208 208 208 209 209 209 209 210 211 213 214 215 216 216 216 217 219 221 222 222 222 222 223 223 222
74 96 94 82 73 77 98 104 104 111 125 153 178 188 189 192 193 193 194 195 197 200 202 203 206 205 202 201 201 200 199 200 201 202 204 206 206 206 207 208 209 210 210 210 211 211 212 213 215 216 217 218 218 219 220 222 223 223 223 223 223 223 223
61 68 67 64 59 58 68 75 76 78 79 82 124 192 200 201 199 196 198 200 201 203 204 204 206 206 202 200 201 201 198 198 199 200 203 204 204 205 207 208 210 210 210 211 213 214 214 215 216 218 219 219 220 222 224 224 224 224 224 224 224 223 223
63 63 61 53 47 43 46 54 59 59 55 48 42 47 200 210 206 202 202 204 207 210 209 207 208 208 203 200 201 201 199 198 198 199 201 202 202 205 207 208 210 211 211 212 213 215 216 217 219 220 220 221 221 223 226 228 227 227 227 226 224 223 222
57 62 61 53 49 39 28 31 45 48 41 28 15 10 7 342 242 217 210 208 209 212 215 216 214 211 206 201 200 201 200 199 198 198 199 200 202 205 206 208 210 211 211 212 214 216 218 220 221 222 223 223 224 225 228 230 231 231 231 228 225 223 222
45 47 48 49 50 35 19 25 38 42 45 39 20 7 3 360 346 284 230 217 210 209 213 220 221 217 211 205 201 200 200 199 199 199 199 201 203 205 206 207 209 210 212 213 216 219 221 222 224 225 226 226 228 229 231 232 234 234 235 233 228 225 223
37 32 35 43 42 28 21 26 28 32 44 41 24 13 10 6 1 350 309 245 220 212 213 218 220 220 218 212 204 200 200 199 199 199 200 202 203 204 205 206 207 208 210 213 216 219 221 223 225 227 228 229 230 231 232 233 234 235 237 238 234 229 225
31 21 25 43 43 27 17 17 20 31 42 35 19 9 3 359 357 351 340 315 263 239 230 224 219 217 216 214 207 201 199 199 199 200 201 202 202 203 204 204 204 205 207 210 213 217 220 223 225 228 230 230 231 232 234 235 236 237 237 238 238 235 229
29 15 23 41 41 25 12 11 20 32 36 26 14 3 355 353 350 339 333 334 326 314 309 257 223 213 211 210 206 201 198 198 198 199 199 200 200 199 199 201 202 203 205 207 210 214 218 221 225 229 231 233 233 234 235 236 237 238 239 239 239 238 236
25 13 26 40 34 19 8 4 14 29 28 17 10 3 354 349 341 331 332 355 3 355 352 318 231 211 206 204 203 200 198 196 196 196 196 196 197 196 195 197 199 201 203 206 208 212 216 219 223 227 231 233 233 234 236 237 238 239 240 241 241 241 240
19 12 28 37 26 13 4 355 2 27 32 22 18 13 2 354 349 347 356 8 8 8 19 8 252 211 203 199 199 198 195 194 193 193 193 193 192 191 192 194 196 199 203 206 208 211 214 217 220 223 228 231 232 232 233 235 236 237 239 241 241 242 242
14 8 20 28 20 9 360 352 360 21 31 26 23 19 11 8 10 11 6 2 2 6 14 17 350 210 202 197 195 193 190 189 188 188 189 189 187 188 191 193 195 198 201 204 206 209 212 214 215 218 222 225 227 229 229 231 234 236 237 239 240 240 241
10 2 5 15 14 4 357 355 4 22 31 22 13 10 9 9 12 11 5 4 7 5 3 15 54 179 190 190 189 186 182 180 180 181 183 184 186 189 193 194 195 197 200 202 204 208 210 211 211 214 217 218 220 223 225 228 231 232 232 234 236 238 239
4 351 343 348 357 354 350 352 4 25 31 17 8 8 10 12 14 10 7 8 10 9 7 16 60 140 162 168 171 173 173 171 172 174 177 180 186 191 194 195 197 198 199 201 203 205 207 208 207 207 208 210 213 217 219 218 212 208 212 222 232 237 241
359 338 325 327 338 344 347 350 360 21 25 15 16 18 16 19 20 13 8 8 8 10 16 17 39 102 140 152 154 157 164 168 168 171 176 179 183 188 192 195 198 198 199 201 203 202 202 203 204 204 204 206 210 209 202 188 178 173 169 180 196 205 221
331 318 315 323 330 338 359 5 7 21 24 17 23 24 14 15 18 11 8 8 4 5 16 24 19 72 127 148 152 156 161 165 169 173 173 167 157 155 169 185 192 193 193 199 203 204 204 203 202 202 197 190 190 189 175 155 147 148 139 133 128 100 32
316 310 308 317 325 340 13 15 9 15 15 12 25 29 20 16 14 6 4 7 4 2 10 40 92 93 118 138 160 172 170 167 171 170 160 149 140 129 122 127 148 161 162 171 187 197 202 200 191 183 177 158 137 140 148 139 127 118 109 99 85 62 12
312 308 307 308 309 325 356 358 9 19 11 13 27 31 25 18 7 357 358 4 7 5 9 61 90 89 90 94 130 169 174 173 168 153 143 140 138 130 117 103 100 106 109 113 129 147 157 158 148 141 149 146 126 113 111 109 103 100 93 84 76 67 46
298 291 308 328 334 351 6 9 24 24 17 32 43 40 36 24 5 356 358 1 8 14 25 77 94 90 88 91 107 137 155 157 148 138 134 132 131 128 122 110 99 94 93 96 102 108 112 117 118 114 114 118 116 111 106 100 96 93 88 84 80 75 74